Location: Prague
(50.0830°N, 14.4670°E)
Time: 18:30:35
(UTC+01:00)

STARLINK-1726 - Pass Details

Date: 22 September 2020
Orbit: 378 x 381 km, 53.0° (Epoch: 30 October)

Event Time Altitude Azimuth Distance (km) Brightness Sun altitude
Exits shadow 05:23:27 22° 294° (WNW) 959 4.4 -14.3°
Maximum altitude 05:25:17 48° 0° (N) 547 3.7 -14.0°
Drops below altitude 10° 05:28:32 10° 77° (ENE) 1,483 7.3 -13.5°
Sets 05:30:40 0° 83° (E) 2,343 8.7 -13.2°
